Tracking 28790 objects as of 19-Apr-2024
HD Live streaming from Space Station
objects crossing your sky now

COSMOS 1473

Track COSMOS 1473 now!
10-day predictions
COSMOS 1473 is classified as:


NORAD ID: 14171
Int'l Code: 1983-069A
Perigee: 1,401.2 km
Apogee: 1,469.3 km
Inclination: 74.0 °
Period: 114.4 minutes
Semi major axis: 7806 km
RCS: 0.7151 m2 (medium)
Launch date: July 6, 1983
Source: Commonwealth of Independent States (former USSR) (CIS)
Launch site: PLESETSK MISSILE AND SPACE COMPLEX (PKMTR)
Your satellite tracking list
Your tracking list is empty




NASA's NSSDC Master Catalog

Two Line Element Set (TLE):
1 14171U 83069A   24109.81931671  .00000014  00000-0  17720-3 0  9997
2 14171  74.0270 335.7657 0043656  17.9286  56.7511 12.58744737874203
Source of the keplerian elements: AFSPC